Weather History for KAFF - October, 2013

Change the Weather History Date:

Sunday, October 13, 2013

  Actual Average Record
Temperature  
Mean Temperature 44 °F -  
Max Temperature 60 °F 62 °F 78 °F (1996)
Min Temperature 28 °F 33 °F 28 °F (2013)
Degree Days  
Heating Degree Days 21    
Moisture  
Dew Point 40 °F    
Average Humidity 80    
Maximum Humidity 94    
Minimum Humidity 39    
Precipitation  
Precipitation 9.84 in - - ()
Sea Level Pressure  
Sea Level Pressure 30.07 in    
Wind  
Wind Speed 9 mph (SE)    
Max Wind Speed 18 mph    
Max Gust Speed 26 mph    
Visibility 10 miles    
Events Rain    
Averages and records for this station are not official NWS values.
T = Trace of Precipitation, MM = Missing Value Source: NWS Daily Summary

Daily Weather History Graph

Daily Weather History Graph

Search for Another Location

Airport or City:

Trip Planner

Search our weather history database for the weather conditions in past years. The results will help you decide how hot, cold, wet, or windy it might be!

Date:

Astronomy

Oct. 13, 2013 Rise Set
Actual Time 7:07 AM MDT 6:23 PM MDT
Civil Twilight 6:40 AM MDT 6:49 PM MDT
Nautical Twilight 6:09 AM MDT 7:20 PM MDT
Astronomical Twilight 5:38 AM MDT 7:51 PM MDT
Moon 3:13 PM MDT (10/13) 1:22 AM MDT (10/13)
Length of Visible Light 12h 09m
Length of Day
11h 16m
Waxing Gibbous, 70% of the Moon is Illuminated
Oct 13
Waxing Gibbous
Oct 18
Full
Oct 26
Last Quarter
Nov 3
New
Nov 9
First Quarter

Hourly Weather History & Observations

Time (MDT) Temp. Windchill Dew Point Humidity Pressure Visibility Wind Dir Wind Speed Gust Speed Precip Events Conditions
12:58 AM 38.5 °F 34.1 °F 30.7 °F 74% 30.14 in 10.0 mi ESE 5.8 mph - -   Clear
1:58 AM 35.2 °F - 29.5 °F 80% 30.16 in 10.0 mi WSW 2.3 mph - -   Clear
2:58 AM 31.5 °F - 28.6 °F 89% 30.18 in 10.0 mi NNE 1.2 mph - -   Clear
3:58 AM 29.1 °F 23.0 °F 26.8 °F 91% 30.21 in 10.0 mi North 5.8 mph - -   Clear
4:58 AM 28.8 °F 22.6 °F 27.0 °F 93% 30.20 in 10.0 mi Variable 5.8 mph - -   Clear
5:58 AM 28.6 °F 21.5 °F 26.8 °F 93% 30.20 in 10.0 mi North 6.9 mph - 9.84 in   Clear
6:58 AM 28.4 °F 22.2 °F 26.8 °F 94% 30.21 in 10.0 mi North 5.8 mph - N/A   Clear
7:58 AM 29.3 °F 23.2 °F 27.3 °F 92% 30.22 in 10.0 mi North 5.8 mph - N/A   Clear
8:58 AM 39.4 °F 37.2 °F 32.9 °F 78% 30.19 in 10.0 mi South 3.5 mph - N/A   Clear
9:58 AM 44.1 °F 41.5 °F 33.4 °F 66% 30.16 in 10.0 mi Variable 4.6 mph - N/A   Clear
10:58 AM 47.3 °F - 34.2 °F 60% 30.12 in 10.0 mi Variable 5.8 mph - N/A   Clear
11:58 AM 51.6 °F - 35.1 °F 53% 30.10 in 10.0 mi South 10.4 mph - N/A   Clear
12:58 PM 54.1 °F - 35.2 °F 49% 30.07 in 10.0 mi SE 13.8 mph 18.4 mph N/A   Clear
1:58 PM 57.2 °F - 34.2 °F 42% 30.03 in 10.0 mi SE 15.0 mph - N/A   Clear
2:58 PM 58.5 °F - 35.6 °F 42% 30.01 in 10.0 mi South 16.1 mph - N/A   Clear
3:58 PM 60.3 °F - 35.4 °F 39% 29.99 in 10.0 mi South 16.1 mph - N/A   Clear
4:58 PM 60.4 °F - 36.3 °F 41% 29.96 in 10.0 mi South 15.0 mph - N/A   Clear
5:58 PM 58.6 °F - 37.4 °F 45% 29.95 in 10.0 mi South 8.1 mph - N/A   Clear
6:58 PM 53.1 °F - 37.0 °F 55% 29.99 in 10.0 mi ESE 6.9 mph - N/A   Partly Cloudy
7:58 PM 53.4 °F - 47.7 °F 81% 29.99 in 10.0 mi SE 18.4 mph 23.0 mph N/A   Scattered Clouds
8:08 PM 53.6 °F - 48.2 °F 82% 30.04 in 10.0 mi SE 13.8 mph - N/A   Mostly Cloudy
8:49 PM 51.8 °F - 48.2 °F 88% 30.06 in 10.0 mi SSE 9.2 mph - N/A Rain Light Rain
8:58 PM 51.6 °F - 48.2 °F 88% 29.98 in 10.0 mi SSE 9.2 mph - 0.00 in Rain Light Rain
9:01 PM 51.8 °F - 48.2 °F 88% 30.06 in 10.0 mi SSE 10.4 mph - N/A   Overcast
9:16 PM 51.8 °F - 48.2 °F 88% 30.05 in 10.0 mi SE 8.1 mph - N/A   Scattered Clouds
9:36 PM 50.0 °F - 48.2 °F 94% 30.06 in 10.0 mi SSE 12.7 mph - N/A Rain Light Rain
9:46 PM 50.0 °F - 48.2 °F 94% 30.06 in 8.0 mi SSE 17.3 mph 23.0 mph N/A Rain Light Rain
9:51 PM 50.0 °F - 48.2 °F 94% 30.06 in 7.0 mi SSE 18.4 mph 26.5 mph N/A Rain Light Rain
9:56 PM 50.0 °F - 46.4 °F 87% 30.06 in 8.0 mi SE 17.3 mph 26.5 mph N/A Rain Light Rain
9:58 PM 50.0 °F - 46.4 °F 87% 29.96 in 8.0 mi SSE 13.8 mph 26.5 mph 0.00 in Rain Light Rain
10:03 PM 50.0 °F - 48.2 °F 94% 30.07 in 9.0 mi SSE 13.8 mph - N/A Rain Light Rain
10:26 PM 50.0 °F - 48.2 °F 94% 30.05 in 10.0 mi SSE 18.4 mph - N/A   Mostly Cloudy
10:30 PM 50.0 °F - 48.2 °F 94% 30.04 in 10.0 mi SSE 16.1 mph - N/A Rain Light Rain
10:35 PM 50.0 °F - 48.2 °F 94% 30.05 in 10.0 mi SSE 16.1 mph - N/A Rain Light Rain
10:40 PM 50.0 °F - 48.2 °F 94% 30.05 in 10.0 mi SSE 13.8 mph - N/A Rain Light Rain
10:45 PM 50.0 °F - 48.2 °F 94% 30.04 in 10.0 mi SE 13.8 mph - N/A Rain Light Rain
10:50 PM 50.0 °F - 48.2 °F 94% 30.02 in 10.0 mi ESE 15.0 mph - N/A Rain Light Rain
10:58 PM 50.0 °F - 48.2 °F 94% 29.91 in 10.0 mi SE 11.5 mph - 0.00 in Rain Light Rain
10:59 PM 50.0 °F - 48.2 °F 94% 30.03 in 10.0 mi SE 10.4 mph - N/A   Scattered Clouds
11:58 PM 47.1 °F - 44.6 °F 91% 29.88 in 10.0 mi SSE 10.4 mph - 0.00 in   Partly Cloudy